CW3276 Weather Reports


Display with metric or nautical units.
time (UTC)temp
F
wind
direction
speed
MPH
gust
MPH
rain 1hr
in
rain 24hr
in
rain mn
in
humidity
%
barometer
mb
20260506221628 47 23 2.0 9.0 0.00 0.11 0.00 96 1008.2
20260506220616 47 0 2.0 10.0 0.00 0.11 0.00 96 1008.2
20260506215545 48 0 4.0 10.0 0.00 0.11 0.11 96 1008.2
20260506213515 48 0 2.0 7.0 0.00 0.11 0.11 96 1008.1
20260506211434 48 45 1.0 6.0 0.00 0.11 0.11 96 1008.0
20260506210359 48 45 2.0 7.0 0.00 0.11 0.11 95 1007.8
20260506205328 48 45 1.0 4.0 0.00 0.11 0.11 95 1007.7
20260506204308 48 45 2.0 6.0 0.00 0.11 0.11 95 1007.7
20260506203257 48 23 1.0 5.0 0.00 0.11 0.11 95 1007.7
20260506202246 48 23 1.0 3.0 0.00 0.11 0.11 95 1007.6
20260506201234 48 23 1.0 4.0 0.00 0.11 0.11 95 1007.6
20260506200204 48 23 1.0 3.0 0.00 0.11 0.11 95 1007.6
20260506195148 48 23 1.0 4.0 0.00 0.11 0.11 95 1007.5
20260506194138 49 0 1.0 4.0 0.00 0.11 0.11 95 1007.3
20260506193120 49 23 1.0 4.0 0.00 0.11 0.11 94 1007.3
20260506192051 49 23 2.0 9.0 0.00 0.11 0.11 94 1007.2
20260506191017 49 45 1.0 7.0 0.00 0.11 0.11 94 1007.1
20260506185938 49 45 2.0 5.0 0.01 0.11 0.11 94 1007.1
20260506184929 49 0 1.0 5.0 0.01 0.11 0.11 94 1007.1
20260506183913 49 23 2.0 5.0 0.02 0.11 0.11 94 1006.9
20260506181834 49 45 2.0 6.0 0.03 0.10 0.10 93 1006.6
20260506180825 50 23 2.0 5.0 0.04 0.10 0.10 93 1006.6
20260506174741 50 23 2.0 5.0 0.06 0.09 0.09 92 1006.6
20260506173731 50 45 1.0 4.0 0.06 0.09 0.09 91 1006.4
20260506172715 51 45 1.0 5.0 0.05 0.07 0.07 91 1006.4
20260506171649 51 23 2.0 6.0 0.04 0.06 0.06 90 1006.2
20260506170626 51 45 2.0 6.0 0.04 0.06 0.06 89 1006.1
20260506165554 51 23 1.0 5.0 0.03 0.05 0.05 87 1006.1
20260506164545 51 23 1.0 4.0 0.03 0.04 0.04 86 1006.1
20260506163530 52 23 1.0 5.0 0.03 0.03 0.03 85 1006.1
20260506162511 52 45 1.0 6.0 0.02 0.02 0.02 83 1006.1
20260506161436 52 23 1.0 6.0 0.02 0.02 0.02 82 1006.1
20260506160407 53 23 2.0 9.0 0.02 0.02 0.02 81 1006.1
20260506154340 54 23 3.0 6.0 0.00 0.00 0.00 75 1006.0
20260506153324 54 45 4.0 9.0 0.00 0.00 0.00 73 1006.0
20260506152309 54 45 3.0 10.0 0.00 0.00 0.00 72 1006.0
20260506151249 55 45 4.0 11.0 0.00 0.00 0.00 71 1006.0
20260506150219 55 23 4.0 10.0 0.00 0.00 0.00 72 1006.0
20260506145150 55 23 3.0 12.0 0.00 0.00 0.00 69 1006.0
20260506144136 55 0 4.0 10.0 0.00 0.00 0.00 67 1006.1
20260506143116 55 23 3.0 9.0 0.00 0.00 0.00 66 1006.1
20260506142101 55 45 4.0 7.0 0.00 0.00 0.00 65 1006.1
20260506141044 55 23 3.0 10.0 0.00 0.00 0.00 65 1006.0
20260506140043 55 45 5.0 12.0 0.00 0.00 0.00 66 1006.0
20260506135007 55 23 5.0 14.0 0.00 0.00 0.00 66 1006.0
20260506133941 56 45 5.0 12.0 0.00 0.00 0.00 67 1006.0
20260506132933 56 45 3.0 11.0 0.00 0.00 0.00 66 1006.0
20260506131929 56 23 4.0 10.0 0.00 0.00 0.00 66 1005.9
20260506130923 56 23 3.0 7.0 0.00 0.00 0.00 65 1005.9
20260506125855 56 0 5.0 12.0 0.00 0.00 0.00 63 1005.9
20260506122753 57 0 4.0 9.0 0.00 0.00 0.00 62 1005.7
20260506121732 57 45 6.0 15.0 0.00 0.00 0.00 61 1005.5
20260506120740 57 45 5.0 17.0 0.00 0.00 0.00 61 1005.5
20260506115636 58 45 5.0 17.0 0.00 0.00 0.00 64 1005.5
20260506114608 57 45 4.0 11.0 0.00 0.00 0.00 65 1005.5
20260506113551 57 45 4.0 11.0 0.00 0.00 0.00 63 1005.5
20260506111540 56 45 7.0 15.0 0.00 0.00 0.00 61 1005.5
20260506110454 56 45 6.0 16.0 0.00 0.00 0.00 63 1005.5
20260506105449 56 23 4.0 12.0 0.00 0.00 0.00 66 1005.5
20260506104414 55 45 5.0 14.0 0.00 0.00 0.00 66 1005.6
20260506103341 54 45 3.0 10.0 0.00 0.00 0.00 70 1005.6
20260506101243 54 45 3.0 8.0 0.00 0.00 0.00 72 1005.5
20260506100239 53 45 3.0 11.0 0.00 0.00 0.00 70 1005.6
20260506095104 53 45 2.0 7.0 0.00 0.00 0.00 70 1005.6
20260506094039 53 45 4.0 11.0 0.00 0.00 0.00 69 1005.6
20260506093013 53 23 4.0 9.0 0.00 0.00 0.00 70 1005.6
20260506091946 53 45 4.0 12.0 0.00 0.00 0.00 70 1005.6
20260506090919 52 45 4.0 11.0 0.00 0.00 0.00 71 1005.6
20260506085845 52 45 3.0 10.0 0.00 0.00 0.00 73 1005.6
20260506084820 52 45 4.0 10.0 0.00 0.00 0.00 74 1005.6
20260506083815 51 45 2.0 10.0 0.00 0.00 0.00 73 1005.6
20260506081716 51 45 2.0 10.0 0.00 0.00 0.00 73 1005.6
20260506080701 50 23 2.0 7.0 0.00 0.00 0.00 74 1005.4
20260506072603 50 45 2.0 6.0 0.00 0.00 0.00 75 1005.3
20260506071537 50 45 2.0 6.0 0.00 0.00 0.00 75 1005.2
20260506070525 50 45 3.0 9.0 0.00 0.00 0.00 75 1005.2
20260506062331 49 0 4.0 10.0 0.00 0.01 0.00 75 1005.1
20260506061331 49 45 4.0 10.0 0.00 0.01 0.00 77 1005.1
20260506060301 49 45 4.0 13.0 0.00 0.01 0.00 77 1005.1
20260506051042 48 45 3.0 11.0 0.00 0.05 0.00 77 1005.2
20260506045011 48 45 2.0 7.0 0.00 0.06 0.00 77 1005.4
20260506043937 48 45 3.0 8.0 0.00 0.07 0.00 77 1005.4
20260506042920 48 45 2.0 8.0 0.00 0.08 0.00 77 1005.4
20260506041914 48 45 3.0 7.0 0.00 0.09 0.00 78 1005.3
20260506040839 48 45 2.0 10.0 0.00 0.10 0.00 78 1005.3
20260506035809 48 45 2.0 9.0 0.00 0.11 0.00 79 1005.3
20260506034804 48 45 3.0 9.0 0.00 0.13 0.00 79 1005.3
20260506033740 47 45 2.0 7.0 0.00 0.13 0.00 79 1005.4
20260506032708 47 45 3.0 7.0 0.00 0.15 0.00 79 1005.4
20260506031651 47 45 3.0 7.0 0.00 0.16 0.00 80 1005.6
20260506030623 47 45 2.0 7.0 0.00 0.18 0.00 81 1005.7
20260506025603 47 45 2.0 6.0 0.00 0.19 0.00 81 1005.8
20260506024532 47 45 2.0 6.0 0.00 0.19 0.00 83 1005.9
20260506023507 47 0 2.0 7.0 0.00 0.19 0.00 83 1006.0
20260506022450 47 45 2.0 8.0 0.00 0.19 0.00 84 1006.0
20260506021425 48 23 2.0 8.0 0.00 0.19 0.00 84 1006.1
20260506020428 48 23 2.0 5.0 0.00 0.19 0.00 84 1006.2
20260506015405 48 23 1.0 3.0 0.00 0.19 0.00 84 1006.3
20260506013312 48 23 1.0 4.0 0.00 0.19 0.00 84 1006.3
20260506012240 48 23 1.0 5.0 0.00 0.19 0.00 84 1006.3
20260506011238 48 23 1.0 4.0 0.00 0.19 0.00 84 1006.5
20260506010213 48 45 1.0 3.0 0.00 0.19 0.00 84 1006.5
20260506005212 48 45 1.0 4.0 0.00 0.19 0.00 83 1006.6
20260506004156 48 45 1.0 4.0 0.00 0.19 0.00 83 1006.7
20260506003153 48 45 0.0 3.0 0.00 0.19 0.00 84 1006.7
20260506002154 48 45 2.0 4.0 0.00 0.19 0.00 84 1006.7
20260506001118 48 45 1.0 5.0 0.00 0.19 0.00 85 1006.7
20260505234004 48 0 2.0 7.0 0.00 0.19 0.00 90 1006.9
20260505232946 48 45 2.0 6.0 0.00 0.19 0.00 91 1006.9
20260505231928 48 45 2.0 7.0 0.00 0.19 0.00 91 1006.8
20260505230913 48 45 1.0 5.0 0.00 0.19 0.00 90 1006.9
20260505225842 48 23 1.0 4.0 0.00 0.19 0.00 90 1006.9
20260505224838 48 45 1.0 4.0 0.00 0.19 0.00 89 1007.2
20260505223814 48 45 0.0 3.0 0.00 0.19 0.00 88 1007.2
20260505222757 48 45 0.0 2.0 0.00 0.19 0.00 88 1007.2